This is the latest recevied weather packets stored in our database for station/object KO4RMV-3. If no packets are shown the sender has not sent any weather packets the latest 10 day(s).
| Time | Temp. | Humidity | Pressure | Rain* | Wind** | Luminosity | Snow |
|---|---|---|---|---|---|---|---|
| 1777926605 | 25.56° C | 31% | - | 0 mm | - | - | - |
| 1777925705 | 25.56° C | 30% | - | 0 mm | - | - | - |
| 1777924805 | 26.11° C | 30% | - | 0 mm | - | - | - |
| 1777923905 | 26.11° C | 32% | - | 0 mm | - | - | - |
| 1777923005 | 26.11° C | 29% | - | 0 mm | - | - | - |
| 1777922105 | 25° C | 30% | - | 0 mm | - | - | - |
| 1777921205 | 25° C | 31% | - | 0 mm | - | - | - |
| 1777920306 | 24.44° C | 30% | - | 0 mm | - | - | - |
| 1777919406 | 23.89° C | 32% | - | 0 mm | - | - | - |
| 1777918506 | 23.89° C | 32% | - | 0 mm | - | - | - |
| 1777917606 | 23.89° C | 34% | - | 0 mm | - | - | - |
| 1777916706 | 23.33° C | 33% | - | 0 mm | - | - | - |
| 1777915806 | 24.44° C | 31% | - | 0 mm | - | - | - |
| 1777914905 | 24.44° C | 29% | - | 0 mm | - | - | - |
| 1777914005 | 25.56° C | 31% | - | 0 mm | - | - | - |
| 1777913105 | 23.89° C | 30% | - | 0 mm | - | - | - |
| 1777912205 | 24.44° C | 30% | - | 0 mm | - | - | - |
| 1777911305 | 23.89° C | 30% | - | 0 mm | - | - | - |
| 1777910405 | 23.89° C | 29% | - | 0 mm | - | - | - |
| 1777909505 | 24.44° C | 31% | - | 0 mm | - | - | - |
| 1777908605 | 23.33° C | 32% | - | 0 mm | - | - | - |
| 1777907705 | 22.22° C | 35% | - | 0 mm | - | - | - |
| 1777906805 | 21.67° C | 36% | - | 0 mm | - | - | - |
| 1777905905 | 21.11° C | 35% | - | 0 mm | - | - | - |
| 1777905005 | 20° C | 38% | - | 0 mm | - | - | - |
* Rain latest hour (hover to see other rain measurements)
** Current wind speed in m/s (hover to see current wind gust speed)